Hourly Weather Barlovo

Today, 29 September, Tuesday

Time Temperature Precipitation Wind Pressure Humidity
00:00 +10°C° 0 mm 2 mps 749 mmHg 96%
01:00 +10°C° 0 mm 2 mps 749 mmHg 95%
02:00 +10°C° 0 mm 2 mps 749 mmHg 95%
03:00 +10°C° 0 mm 2 mps 749 mmHg 95%
04:00 +10°C° 0 mm 2 mps 749 mmHg 95%
05:00 +10°C° 0 mm 2 mps 749 mmHg 95%
06:00 +10°C° 0 mm 2 mps 749 mmHg 93%
07:00 +10°C° 0 mm 2 mps 749 mmHg 91%
08:00 +10°C° 0 mm 2 mps 749 mmHg 89%
09:00 +13°C° 0 mm 2 mps 749 mmHg 83%
10:00 +14°C° 0 mm 2 mps 749 mmHg 76%
11:00 +15°C° 0 mm 2 mps 749 mmHg 70%
12:00 +16°C° 0 mm 1 mps 749 mmHg 65%
13:00 +18°C° 0 mm 1 mps 749 mmHg 61%
14:00 +18°C° 0 mm 1 mps 749 mmHg 56%
15:00 +16°C° 0 mm 1 mps 748 mmHg 63%
16:00 +15°C° 0 mm 1 mps 748 mmHg 69%
17:00 +14°C° 0 mm 1 mps 748 mmHg 75%
18:00 +13°C° 0 mm 2 mps 748 mmHg 81%
19:00 +12°C° 0 mm 2 mps 748 mmHg 86%
20:00 +10°C° 0 mm 2 mps 748 mmHg 92%
21:00 +10°C° 0 mm 2 mps 748 mmHg 92%
22:00 +9°C° 0 mm 2 mps 748 mmHg 91%
23:00 +9°C° 0 mm 2 mps 747 mmHg 91%

Tomorrow, 30 September, Wednesday

Time Temperature Precipitation Wind Pressure Humidity
00:00 +9°C° 0 mm 2 mps 747 mmHg 89%
01:00 +8°C° 0 mm 2 mps 748 mmHg 87%
02:00 +8°C° 0 mm 2 mps 748 mmHg 84%
03:00 +8°C° 0 mm 2 mps 747 mmHg 81%
04:00 +9°C° 0 mm 2 mps 747 mmHg 78%
05:00 +9°C° 0 mm 2 mps 747 mmHg 75%
06:00 +9°C° 0 mm 3 mps 747 mmHg 71%
07:00 +9°C° 0 mm 3 mps 747 mmHg 68%
08:00 +10°C° 0 mm 3 mps 747 mmHg 64%
09:00 +11°C° 0 mm 3 mps 747 mmHg 59%
10:00 +13°C° 0 mm 3 mps 747 mmHg 55%
11:00 +14°C° 0 mm 3 mps 747 mmHg 50%
12:00 +16°C° 0 mm 3 mps 747 mmHg 50%
13:00 +15°C° 0 mm 4 mps 747 mmHg 50%
14:00 +17°C° 0 mm 4 mps 747 mmHg 50%
15:00 +16°C° 0 mm 3 mps 747 mmHg 56%
16:00 +14°C° 0 mm 3 mps 747 mmHg 61%
17:00 +13°C° 0 mm 2 mps 747 mmHg 67%
18:00 +13°C° 0 mm 2 mps 747 mmHg 70%
19:00 +11°C° 0 mm 3 mps 747 mmHg 73%
20:00 +10°C° 0 mm 3 mps 747 mmHg 75%
21:00 +10°C° 0 mm 3 mps 747 mmHg 76%
22:00 +10°C° 0 mm 3 mps 747 mmHg 76%
23:00 +9°C° 0 mm 3 mps 747 mmHg 76%

Day after tomorrow, 1 October, Thursday

Time Temperature Precipitation Wind Pressure Humidity
00:00 +9°C° 0 mm 3 mps 747 mmHg 77%
01:00 +9°C° 0 mm 3 mps 747 mmHg 79%
02:00 +9°C° 0 mm 3 mps 747 mmHg 80%
03:00 +8°C° 0 mm 3 mps 747 mmHg 82%
04:00 +8°C° 0 mm 3 mps 747 mmHg 83%
05:00 +8°C° 0 mm 3 mps 747 mmHg 85%
06:00 +9°C° 0 mm 3 mps 747 mmHg 80%
07:00 +9°C° 0 mm 3 mps 747 mmHg 76%
08:00 +10°C° 0 mm 4 mps 747 mmHg 72%
09:00 +12°C° 0 mm 4 mps 747 mmHg 66%
10:00 +14°C° 0 mm 4 mps 748 mmHg 60%
11:00 +15°C° 0 mm 4 mps 748 mmHg 54%
12:00 +17°C° 0 mm 4 mps 748 mmHg 52%
13:00 +18°C° 0 mm 4 mps 747 mmHg 50%
14:00 +17°C° 0 mm 5 mps 747 mmHg 48%
15:00 +17°C° 0 mm 4 mps 747 mmHg 53%
16:00 +15°C° 0 mm 4 mps 747 mmHg 59%
17:00 +13°C° 0 mm 3 mps 747 mmHg 65%
18:00 +12°C° 0 mm 3 mps 748 mmHg 67%
19:00 +11°C° 0 mm 3 mps 748 mmHg 69%
20:00 +10°C° 0 mm 3 mps 748 mmHg 72%
21:00 +10°C° 0 mm 3 mps 748 mmHg 70%
22:00 +10°C° 0 mm 3 mps 748 mmHg 69%
23:00 +10°C° 0 mm 3 mps 748 mmHg 68%

2 October, Friday

Time Temperature Precipitation Wind Pressure Humidity
00:00 +10°C° 0 mm 3 mps 748 mmHg 68%
01:00 +10°C° 0 mm 3 mps 748 mmHg 68%
02:00 +9°C° 0 mm 3 mps 748 mmHg 68%
03:00 +9°C° 0 mm 3 mps 748 mmHg 70%
04:00 +9°C° 0 mm 3 mps 748 mmHg 72%
05:00 +9°C° 0 mm 3 mps 748 mmHg 74%
06:00 +9°C° 0 mm 3 mps 749 mmHg 72%
07:00 +10°C° 0 mm 3 mps 749 mmHg 70%
08:00 +10°C° 0 mm 4 mps 749 mmHg 69%
09:00 +12°C° 0 mm 4 mps 749 mmHg 65%
10:00 +13°C° 0 mm 4 mps 749 mmHg 61%
11:00 +14°C° 0 mm 3 mps 749 mmHg 58%
12:00 +15°C° 0 mm 4 mps 749 mmHg 56%
13:00 +17°C° 0 mm 4 mps 749 mmHg 55%
14:00 +17°C° 0 mm 4 mps 749 mmHg 54%
15:00 +15°C° 0 mm 4 mps 749 mmHg 59%
16:00 +14°C° 0 mm 3 mps 749 mmHg 64%
17:00 +13°C° 0 mm 3 mps 749 mmHg 68%
18:00 +13°C° 0 mm 3 mps 749 mmHg 69%
19:00 +13°C° 0 mm 3 mps 750 mmHg 70%
20:00 +12°C° 0 mm 4 mps 750 mmHg 71%
21:00 +12°C° 0 mm 3 mps 750 mmHg 73%
22:00 +12°C° 0 mm 3 mps 750 mmHg 76%
23:00 +11°C° 0 mm 3 mps 750 mmHg 78%

3 October, Saturday

Time Temperature Precipitation Wind Pressure Humidity
00:00 +11°C° 0 mm 3 mps 750 mmHg 80%
01:00 +10°C° 0 mm 3 mps 749 mmHg 82%
02:00 +10°C° 0 mm 3 mps 749 mmHg 84%
03:00 +10°C° 0 mm 3 mps 749 mmHg 85%
04:00 +10°C° 0 mm 3 mps 749 mmHg 85%
05:00 +10°C° 0 mm 3 mps 749 mmHg 86%
06:00 +10°C° 0 mm 3 mps 749 mmHg 83%
07:00 +11°C° 0 mm 3 mps 749 mmHg 81%
08:00 +11°C° 0 mm 3 mps 749 mmHg 78%
09:00 +12°C° 0 mm 3 mps 749 mmHg 74%
10:00 +14°C° 0 mm 3 mps 750 mmHg 69%
11:00 +16°C° 0 mm 3 mps 750 mmHg 65%
12:00 +16°C° 0 mm 3 mps 750 mmHg 65%
13:00 +16°C° 0 mm 3 mps 750 mmHg 64%
14:00 +16°C° 0 mm 2 mps 749 mmHg 64%
15:00 +15°C° 0 mm 2 mps 749 mmHg 68%
16:00 +15°C° 0 mm 2 mps 749 mmHg 73%
17:00 +14°C° 0 mm 2 mps 749 mmHg 77%
18:00 +14°C° 0 mm 2 mps 749 mmHg 77%
19:00 +12°C° 0 mm 3 mps 749 mmHg 77%
20:00 +12°C° 0 mm 3 mps 749 mmHg 77%
21:00 +12°C° 0 mm 3 mps 749 mmHg 78%
22:00 +11°C° 0 mm 3 mps 749 mmHg 78%
23:00 +11°C° 0 mm 3 mps 749 mmHg 79%

4 October, Sunday

Time Temperature Precipitation Wind Pressure Humidity
00:00 +10°C° 0 mm 3 mps 749 mmHg 80%
01:00 +10°C° 0 mm 3 mps 749 mmHg 81%
02:00 +9°C° 0 mm 3 mps 749 mmHg 82%
03:00 +9°C° 0 mm 3 mps 749 mmHg 82%
04:00 +9°C° 0 mm 3 mps 749 mmHg 83%
05:00 +8°C° 0 mm 3 mps 749 mmHg 84%
06:00 +9°C° 0 mm 3 mps 748 mmHg 80%
07:00 +10°C° 0 mm 4 mps 748 mmHg 76%
08:00 +11°C° 0 mm 4 mps 748 mmHg 73%
09:00 +11°C° 0 mm 4 mps 748 mmHg 69%
10:00 +12°C° 0 mm 4 mps 748 mmHg 65%
11:00 +13°C° 0 mm 4 mps 748 mmHg 62%
12:00 +14°C° 0 mm 4 mps 748 mmHg 60%
13:00 +14°C° 0 mm 5 mps 748 mmHg 57%
14:00 +15°C° 0 mm 5 mps 748 mmHg 55%
15:00 +14°C° 0 mm 4 mps 748 mmHg 59%
16:00 +13°C° 0 mm 3 mps 748 mmHg 63%
17:00 +12°C° 0 mm 3 mps 748 mmHg 68%
18:00 +11°C° 0 mm 3 mps 748 mmHg 70%
19:00 +10°C° 0 mm 3 mps 748 mmHg 72%
20:00 +9°C° 0 mm 3 mps 748 mmHg 74%
21:00 +9°C° 0 mm 3 mps 748 mmHg 75%
22:00 +9°C° 0 mm 3 mps 748 mmHg 76%
23:00 +8°C° 0 mm 3 mps 748 mmHg 77%
Show more